Simultaneous Nadir Overpasses (SNOs) Predictions

Prediction of SNOs between LANDSAT-8 and METOP-A Satellite Orbit:

Table of predicted SNOs for the next 14.0 days since TLE Epoch: 12/19/2020
Index Date (LANDSAT-8) Time (LANDSAT-8) Lat,Lon (LANDSAT-8) SZA (LANDSAT-8 ) Date (METOP-A) Time (METOP-A) Lat,Lon (METOP-A) SZA (METOP-A ) Distance(km) Time Diff (sec)
1 12/21/2020 19:34:36 81.43, -68.38 107.28 12/21/2020 19:34:21 81.44, -68.35 107.29 1.32 15
2 12/21/2020 20:24:03 -81.42, 99.20 72.73 12/21/2020 20:25:01 -81.43, 99.26 72.69 1.35 58
3 12/24/2020 15:08:49 81.44, -1.72 107.24 12/24/2020 15:08:42 81.43, -1.60 107.24 2.16 7
4 12/24/2020 15:58:17 -81.42, 165.50 72.83 12/24/2020 15:59:23 -81.43, 165.65 72.77 2.99 66
5 12/27/2020 09:53:37 -81.44,-102.78 72.88 12/27/2020 09:52:25 -81.44,-102.87 72.93 1.78 72
6 12/27/2020 10:43:04 81.43, 64.51 107.07 12/27/2020 10:43:06 81.44, 64.35 107.07 2.96 2
7 12/27/2020 11:32:25 -81.53,-125.50 72.62 12/27/2020 11:33:39 -81.35,-125.24 72.68 20.11 74
8 12/30/2020 05:27:52 -81.43, -36.57 73.11 12/30/2020 05:26:48 -81.44, -36.51 73.13 1.02 64
9 12/30/2020 06:17:18 81.43, 131.08 106.89 12/30/2020 06:17:28 81.43, 131.07 106.89 0.61 10
10 01/02/2021 01:02:05 -81.44, 29.98 73.35 01/02/2021 01:01:10 -81.44, 29.83 73.39 2.52 55



Historial Predications of SNOs between LANDSAT-8 and METOP-A
